DECAYED

DMSP 5D-2 F13 DEB, 40680 (Decayed)

Orbit data source: Space-Track

DMSP 5D-2 F13 DEB, 40680 was space debris in SSO originally from a launch on Fri, 24 Mar 1995 UTC launched from the Air Force Western Test Range (AFWTR). Debris objects in space refer to the collection of defunct objects orbiting the Earth. Examples of debris include non-operational satellites, rocket bodies, and fragments generated from explosions, collisions, or faulty payload assembly.

Not visible in the next 10 days
Identifier
40680, 1995-015FU
Orbit
Decayed
Country
Flag of USUS
Related business
Manufacturer
Unknown
Mission
Decayed spacecraft
Bus & Motor
Unknown
Mass
Unknown
Launch date (UTC)
1995-03-24 (30 years ago)
Launch vehicle
Unknown
Launch site
Air Force Western Test Range (AFWTR)
Object type
Payload
Rocket body
Debris
Shape & HBR
Unknown
Radar Cross Section
Small (<0.1 m²)

Expand to show TLE details & history
Last TLE update: 10 months ago

TLE from 10 months ago
0 DMSP 5D-2 F13 DEB
1 40680U 95015FU  24327.05060646  .04397034  00000-0  41244-1 0  9999
2 40680  98.7129  54.9978 0025017 323.9845  35.9722 15.62575510501019
Epoch: 2024-11-22T01:12Z
TLE epoch observation values (Epoch: 2024-11-22T01:12:52.398Z)
Latitude
-0.00004°
Longitude
-24.74407°
Altitude
369.655 km
Speed
7.696 km/s
True Right ascension
03h 39m 59s
True Declination
0° 00' 00"
Sunlit
Object was in full shadow at epoch
Visualization orbit readout
Latitude
Unknown
Longitude
Unknown
Altitude
Unknown
Speed
Unknown
Apparent Right ascension
Unknown
Apparent Declination
Unknown
Sunlit
N/A
Visualization observer readout
Local Sidereal Time
00:24:19
Azimuth
Unknown
Elevation
Unknown
Doppler factor
Unknown
Orbital elements
Apogee altitude
394.092 km
Perigee altitude
360.292 km
Semi-major axis
6,755.329 km
Eccentricity
0.0025
Inclination
98.7129°
RAAN
54.9978°
Arg. of periapsis
323.9845°
True anomaly
36.14102°
Mean anomaly
35.9722°
Eccentric anomaly
36.05657°
Mean motion
3.90907 °/min
Orbital period
92.09 mins
BSTAR
0.041244
Loading maneuver chart data...
Computing Atmospheric mass density...

Documentation

Showing up to 5 results
|